| time (UTC) | temp C | wind direction | speed KPH | gust KPH | rain 1hr cm | rain 24hr cm | rain mn cm | humidity % | barometer mb |
| 20260504160405 | 22 | 263 | 12.9 | 22.5 | 0.00 | 0.00 | 0.00 | 24 | 1010.0 |
| 20260504160206 | 22 | 260 | 14.5 | 22.5 | 0.00 | 0.00 | 0.00 | 24 | 1010.0 |
| 20260504151006 | 23 | 267 | 11.3 | 24.1 | 0.00 | 0.00 | 0.00 | 24 | 1010.0 |
| 20260504150806 | 24 | 272 | 6.4 | 24.1 | 0.00 | 0.00 | 0.00 | 24 | 1010.0 |
| 20260504150605 | 22 | 271 | 11.3 | 24.1 | 0.00 | 0.00 | 0.00 | 25 | 1010.0 |
| 20260504150205 | 21 | 269 | 14.5 | 24.1 | 0.00 | 0.00 | 0.00 | 25 | 1010.0 |
| 20260504141207 | 23 | 244 | 6.4 | 11.3 | 0.00 | 0.00 | 0.00 | 25 | 1010.0 |
| 20260504141005 | 23 | 240 | 6.4 | 11.3 | 0.00 | 0.00 | 0.00 | 25 | 1010.0 |
| 20260504140806 | 23 | 240 | 8.0 | 11.3 | 0.00 | 0.00 | 0.00 | 26 | 1010.0 |
| 20260504140606 | 22 | 255 | 6.4 | 14.5 | 0.00 | 0.00 | 0.00 | 26 | 1010.0 |
| 20260504140405 | 22 | 258 | 8.0 | 20.9 | 0.00 | 0.00 | 0.00 | 26 | 1010.0 |
| 20260504130805 | 23 | 253 | 6.4 | 17.7 | 0.00 | 0.00 | 0.00 | 24 | 1010.0 |
| 20260504130606 | 23 | 247 | 9.7 | 17.7 | 0.00 | 0.00 | 0.00 | 24 | 1010.0 |
| 20260504130406 | 22 | 249 | 9.7 | 25.7 | 0.00 | 0.00 | 0.00 | 25 | 1010.0 |
| 20260504130205 | 23 | 245 | 12.9 | 25.7 | 0.00 | 0.00 | 0.00 | 24 | 1010.0 |
| 20260504120206 | 26 | 290 | 9.7 | 20.9 | 0.00 | 0.00 | 0.00 | 23 | 1011.0 |
| 20260504110407 | 21 | 281 | 12.9 | 24.1 | 0.00 | 0.00 | 0.00 | 29 | 1011.0 |
| 20260504110205 | 21 | 283 | 11.3 | 24.1 | 0.00 | 0.00 | 0.00 | 28 | 1011.0 |
| 20260504100606 | 24 | 272 | 11.3 | 24.1 | 0.00 | 0.00 | 0.00 | 30 | 1011.0 |
| 20260504100406 | 22 | 271 | 8.0 | 24.1 | 0.00 | 0.00 | 0.00 | 31 | 1011.0 |
| 20260504082006 | 18 | 261 | 11.3 | 20.9 | 0.00 | 0.00 | 0.00 | 35 | 1012.0 |
| 20260504081808 | 17 | 262 | 12.9 | 20.9 | 0.00 | 0.00 | 0.00 | 35 | 1012.0 |
| 20260504081605 | 18 | 263 | 14.5 | 20.9 | 0.00 | 0.00 | 0.00 | 35 | 1012.0 |
| 20260504081405 | 18 | 263 | 16.1 | 20.9 | 0.00 | 0.00 | 0.00 | 35 | 1012.0 |
| 20260504081007 | 18 | 266 | 11.3 | 20.9 | 0.00 | 0.00 | 0.00 | 35 | 1012.0 |
| 20260504080806 | 17 | 266 | 14.5 | 20.9 | 0.00 | 0.00 | 0.00 | 35 | 1012.0 |
| 20260504080606 | 18 | 266 | 12.9 | 17.7 | 0.00 | 0.00 | 0.00 | 35 | 1012.0 |
| 20260504080405 | 18 | 268 | 11.3 | 17.7 | 0.00 | 0.00 | 0.00 | 35 | 1012.0 |
| 20260504080206 | 18 | 264 | 16.1 | 17.7 | 0.00 | 0.00 | 0.00 | 34 | 1012.0 |
| 20260504070406 | 17 | 189 | 11.3 | 20.9 | 0.00 | 0.00 | 0.00 | 36 | 1011.0 |
| 20260504070206 | 16 | 182 | 17.7 | 20.9 | 0.00 | 0.00 | 0.00 | 36 | 1011.0 |
| 20260504060206 | 16 | 190 | 9.7 | 16.1 | 0.00 | 0.00 | 0.00 | 36 | 1011.0 |
| 20260504050606 | 15 | 185 | 11.3 | 17.7 | 0.00 | 0.00 | 0.00 | 36 | 1011.0 |
| 20260504050405 | 15 | 190 | 12.9 | 20.9 | 0.00 | 0.00 | 0.00 | 36 | 1011.0 |
| 20260504050206 | 15 | 197 | 11.3 | 24.1 | 0.00 | 0.00 | 0.00 | 36 | 1011.0 |
| 20260504045805 | 15 | 201 | 16.1 | 24.1 | 0.00 | 0.00 | 0.00 | 35 | 1010.0 |
| 20260504045605 | 15 | 201 | 17.7 | 24.1 | 0.00 | 0.00 | 0.00 | 35 | 1010.0 |
| 20260504044806 | 16 | 199 | 12.9 | 17.7 | 0.00 | 0.00 | 0.00 | 34 | 1010.0 |
| 20260504044606 | 16 | 199 | 12.9 | 16.1 | 0.00 | 0.00 | 0.00 | 34 | 1010.0 |
| 20260504044405 | 16 | 197 | 8.0 | 16.1 | 0.00 | 0.00 | 0.00 | 34 | 1010.0 |
| 20260504044206 | 16 | 191 | 11.3 | 16.1 | 0.00 | 0.00 | 0.00 | 34 | 1010.0 |
| 20260504043806 | 16 | 196 | 12.9 | 16.1 | 0.00 | 0.00 | 0.00 | 34 | 1010.0 |
| 20260504043605 | 16 | 210 | 9.7 | 16.1 | 0.00 | 0.00 | 0.00 | 34 | 1010.0 |
| 20260504043406 | 16 | 228 | 9.7 | 16.1 | 0.00 | 0.00 | 0.00 | 34 | 1010.0 |
| 20260504043206 | 16 | 255 | 8.0 | 16.1 | 0.00 | 0.00 | 0.00 | 34 | 1010.0 |
| 20260504043006 | 16 | 274 | 11.3 | 16.1 | 0.00 | 0.00 | 0.00 | 34 | 1010.0 |
| 20260504042805 | 16 | 288 | 6.4 | 16.1 | 0.00 | 0.00 | 0.00 | 34 | 1010.0 |
| 20260504042606 | 16 | 297 | 0.0 | 16.1 | 0.00 | 0.00 | 0.00 | 34 | 1010.0 |
| 20260504042406 | 16 | 301 | 8.0 | 24.1 | 0.00 | 0.00 | 0.00 | 34 | 1010.0 |
| 20260504042206 | 16 | 306 | 4.8 | 24.1 | 0.00 | 0.00 | 0.00 | 34 | 1010.0 |
| 20260504042006 | 16 | 307 | 8.0 | 24.1 | 0.00 | 0.00 | 0.00 | 34 | 1010.0 |
| 20260504041807 | 16 | 308 | 9.7 | 24.1 | 0.00 | 0.00 | 0.00 | 34 | 1010.0 |
| 20260504041605 | 16 | 308 | 14.5 | 24.1 | 0.00 | 0.00 | 0.00 | 34 | 1010.0 |
| 20260504041207 | 16 | 300 | 6.4 | 20.9 | 0.00 | 0.00 | 0.00 | 34 | 1010.0 |
| 20260504041006 | 16 | 295 | 4.8 | 20.9 | 0.00 | 0.00 | 0.00 | 34 | 1010.0 |
| 20260504040806 | 16 | 291 | 12.9 | 20.9 | 0.00 | 0.00 | 0.00 | 34 | 1010.0 |
| 20260504040605 | 16 | 289 | 8.0 | 20.9 | 0.00 | 0.00 | 0.00 | 34 | 1010.0 |
| 20260504040406 | 16 | 290 | 11.3 | 20.9 | 0.00 | 0.00 | 0.00 | 33 | 1010.0 |
| 20260504040206 | 16 | 294 | 11.3 | 19.3 | 0.00 | 0.00 | 0.00 | 33 | 1010.0 |
| 20260504040006 | 16 | 292 | 12.9 | 24.1 | 0.00 | 0.00 | 0.00 | 33 | 1010.0 |
| 20260504035805 | 16 | 287 | 9.7 | 25.7 | 0.00 | 0.00 | 0.00 | 33 | 1010.0 |
| 20260504035606 | 16 | 284 | 11.3 | 25.7 | 0.00 | 0.00 | 0.00 | 33 | 1010.0 |
| 20260504035406 | 16 | 283 | 11.3 | 25.7 | 0.00 | 0.00 | 0.00 | 33 | 1010.0 |
| 20260504035005 | 16 | 285 | 19.3 | 32.2 | 0.00 | 0.00 | 0.00 | 33 | 1010.0 |
| 20260504034806 | 16 | 288 | 9.7 | 32.2 | 0.00 | 0.00 | 0.00 | 33 | 1010.0 |
| 20260504034605 | 16 | 290 | 12.9 | 32.2 | 0.00 | 0.00 | 0.00 | 33 | 1010.0 |
| 20260504034406 | 16 | 286 | 20.9 | 32.2 | 0.00 | 0.00 | 0.00 | 33 | 1010.0 |
| 20260504034207 | 17 | 282 | 24.1 | 32.2 | 0.00 | 0.00 | 0.00 | 33 | 1010.0 |
| 20260504034006 | 16 | 277 | 17.7 | 27.4 | 0.00 | 0.00 | 0.00 | 33 | 1010.0 |
| 20260504033805 | 16 | 276 | 16.1 | 27.4 | 0.00 | 0.00 | 0.00 | 33 | 1010.0 |
| 20260504033605 | 17 | 273 | 20.9 | 27.4 | 0.00 | 0.00 | 0.00 | 33 | 1010.0 |
| 20260504033006 | 16 | 269 | 17.7 | 25.7 | 0.00 | 0.00 | 0.00 | 33 | 1010.0 |
| 20260504032607 | 17 | 260 | 19.3 | 25.7 | 0.00 | 0.00 | 0.00 | 33 | 1010.0 |
| 20260504032206 | 16 | 253 | 16.1 | 22.5 | 0.00 | 0.00 | 0.00 | 33 | 1010.0 |
| 20260504032006 | 16 | 251 | 12.9 | 22.5 | 0.00 | 0.00 | 0.00 | 33 | 1010.0 |
| 20260504031805 | 16 | 247 | 12.9 | 20.9 | 0.00 | 0.00 | 0.00 | 33 | 1010.0 |
| 20260504031606 | 16 | 244 | 11.3 | 20.9 | 0.00 | 0.00 | 0.00 | 33 | 1010.0 |
| 20260504031406 | 16 | 237 | 11.3 | 17.7 | 0.00 | 0.00 | 0.00 | 34 | 1010.0 |
| 20260504031207 | 16 | 230 | 11.3 | 14.5 | 0.00 | 0.00 | 0.00 | 34 | 1010.0 |
| 20260504031006 | 16 | 225 | 9.7 | 14.5 | 0.00 | 0.00 | 0.00 | 34 | 1010.0 |
| 20260504030806 | 16 | 221 | 6.4 | 16.1 | 0.00 | 0.00 | 0.00 | 34 | 1010.0 |
| 20260504030607 | 16 | 219 | 11.3 | 16.1 | 0.00 | 0.00 | 0.00 | 34 | 1010.0 |
| 20260504030005 | 15 | 216 | 11.3 | 16.1 | 0.00 | 0.00 | 0.00 | 34 | 1010.0 |
| 20260504025806 | 15 | 217 | 11.3 | 14.5 | 0.00 | 0.00 | 0.00 | 34 | 1010.0 |
| 20260504025406 | 15 | 219 | 11.3 | 17.7 | 0.00 | 0.00 | 0.00 | 34 | 1010.0 |
| 20260504025005 | 15 | 217 | 11.3 | 19.3 | 0.00 | 0.00 | 0.00 | 34 | 1010.0 |
| 20260504024606 | 15 | 210 | 16.1 | 19.3 | 0.00 | 0.00 | 0.00 | 34 | 1010.0 |
| 20260504024406 | 15 | 207 | 14.5 | 19.3 | 0.00 | 0.00 | 0.00 | 34 | 1010.0 |
| 20260504024205 | 15 | 204 | 14.5 | 17.7 | 0.00 | 0.00 | 0.00 | 34 | 1010.0 |
| 20260504024007 | 15 | 201 | 12.9 | 17.7 | 0.00 | 0.00 | 0.00 | 34 | 1010.0 |
| 20260504023806 | 15 | 199 | 14.5 | 19.3 | 0.00 | 0.00 | 0.00 | 34 | 1010.0 |
| 20260504023607 | 15 | 198 | 14.5 | 19.3 | 0.00 | 0.00 | 0.00 | 34 | 1010.0 |
| 20260504023405 | 15 | 198 | 16.1 | 19.3 | 0.00 | 0.00 | 0.00 | 34 | 1010.0 |
| 20260504023206 | 15 | 198 | 14.5 | 19.3 | 0.00 | 0.00 | 0.00 | 34 | 1010.0 |
| 20260504023007 | 15 | 197 | 16.1 | 19.3 | 0.00 | 0.00 | 0.00 | 34 | 1010.0 |
| 20260504022606 | 15 | 196 | 12.9 | 17.7 | 0.00 | 0.00 | 0.00 | 34 | 1010.0 |
| 20260504022406 | 15 | 193 | 14.5 | 17.7 | 0.00 | 0.00 | 0.00 | 34 | 1010.0 |
| 20260504022006 | 15 | 189 | 12.9 | 17.7 | 0.00 | 0.00 | 0.00 | 34 | 1010.0 |
| 20260504021806 | 15 | 189 | 14.5 | 17.7 | 0.00 | 0.00 | 0.00 | 34 | 1010.0 |
| 20260504021405 | 15 | 190 | 12.9 | 17.7 | 0.00 | 0.00 | 0.00 | 33 | 1010.0 |
| 20260504021007 | 15 | 188 | 12.9 | 17.7 | 0.00 | 0.00 | 0.00 | 33 | 1010.0 |
| 20260504020807 | 15 | 190 | 14.5 | 19.3 | 0.00 | 0.00 | 0.00 | 33 | 1010.0 |
| 20260504015806 | 16 | 193 | 14.5 | 19.3 | 0.00 | 0.00 | 0.00 | 31 | 1010.0 |
| 20260504015605 | 16 | 195 | 14.5 | 19.3 | 0.00 | 0.00 | 0.00 | 31 | 1010.0 |
| 20260504015406 | 16 | 197 | 16.1 | 19.3 | 0.00 | 0.00 | 0.00 | 31 | 1010.0 |
| 20260504015207 | 16 | 198 | 14.5 | 19.3 | 0.00 | 0.00 | 0.00 | 31 | 1010.0 |
| 20260504015006 | 16 | 200 | 16.1 | 19.3 | 0.00 | 0.00 | 0.00 | 31 | 1010.0 |
| 20260504014806 | 16 | 200 | 16.1 | 19.3 | 0.00 | 0.00 | 0.00 | 31 | 1010.0 |
| 20260504014606 | 16 | 200 | 12.9 | 19.3 | 0.00 | 0.00 | 0.00 | 31 | 1010.0 |
| 20260504014205 | 16 | 200 | 14.5 | 19.3 | 0.00 | 0.00 | 0.00 | 30 | 1010.0 |
| 20260504014005 | 16 | 201 | 16.1 | 19.3 | 0.00 | 0.00 | 0.00 | 30 | 1010.0 |
| 20260504013806 | 16 | 200 | 14.5 | 19.3 | 0.00 | 0.00 | 0.00 | 30 | 1010.0 |
| 20260504013607 | 16 | 200 | 14.5 | 19.3 | 0.00 | 0.00 | 0.00 | 30 | 1010.0 |
| 20260504013406 | 16 | 202 | 14.5 | 19.3 | 0.00 | 0.00 | 0.00 | 30 | 1010.0 |
| 20260504013206 | 16 | 204 | 12.9 | 19.3 | 0.00 | 0.00 | 0.00 | 30 | 1010.0 |
| 20260504013006 | 16 | 204 | 14.5 | 19.3 | 0.00 | 0.00 | 0.00 | 29 | 1010.0 |
| 20260504012806 | 16 | 206 | 14.5 | 19.3 | 0.00 | 0.00 | 0.00 | 29 | 1010.0 |
| 20260504012606 | 16 | 205 | 14.5 | 20.9 | 0.00 | 0.00 | 0.00 | 29 | 1010.0 |
| 20260504012406 | 16 | 204 | 16.1 | 20.9 | 0.00 | 0.00 | 0.00 | 29 | 1010.0 |
| 20260504012007 | 16 | 206 | 14.5 | 20.9 | 0.00 | 0.00 | 0.00 | 28 | 1010.0 |
| 20260504011605 | 16 | 207 | 14.5 | 20.9 | 0.00 | 0.00 | 0.00 | 28 | 1010.0 |
| 20260504011405 | 16 | 209 | 12.9 | 20.9 | 0.00 | 0.00 | 0.00 | 28 | 1010.0 |
| 20260504011006 | 16 | 211 | 14.5 | 20.9 | 0.00 | 0.00 | 0.00 | 28 | 1010.0 |
| 20260504010605 | 16 | 213 | 14.5 | 20.9 | 0.00 | 0.00 | 0.00 | 28 | 1010.0 |
| 20260504010407 | 16 | 215 | 12.9 | 20.9 | 0.00 | 0.00 | 0.00 | 28 | 1010.0 |
| 20260504010206 | 16 | 214 | 14.5 | 20.9 | 0.00 | 0.00 | 0.00 | 28 | 1010.0 |
| 20260504010007 | 16 | 214 | 14.5 | 20.9 | 0.00 | 0.00 | 0.00 | 28 | 1010.0 |
| 20260504005806 | 16 | 215 | 14.5 | 20.9 | 0.00 | 0.00 | 0.00 | 28 | 1010.0 |
| 20260504005606 | 16 | 216 | 14.5 | 20.9 | 0.00 | 0.00 | 0.00 | 28 | 1010.0 |
| 20260504005405 | 16 | 214 | 14.5 | 20.9 | 0.00 | 0.00 | 0.00 | 27 | 1010.0 |
| 20260504005206 | 16 | 214 | 16.1 | 20.9 | 0.00 | 0.00 | 0.00 | 27 | 1010.0 |
| 20260504005006 | 16 | 212 | 14.5 | 20.9 | 0.00 | 0.00 | 0.00 | 27 | 1010.0 |
| 20260504004806 | 16 | 211 | 17.7 | 24.1 | 0.00 | 0.00 | 0.00 | 27 | 1010.0 |
| 20260504004606 | 16 | 209 | 16.1 | 24.1 | 0.00 | 0.00 | 0.00 | 27 | 1010.0 |
| 20260504004407 | 16 | 207 | 16.1 | 24.1 | 0.00 | 0.00 | 0.00 | 27 | 1009.0 |
| 20260504004207 | 17 | 204 | 17.7 | 24.1 | 0.00 | 0.00 | 0.00 | 27 | 1009.0 |
| 20260504004006 | 17 | 200 | 19.3 | 24.1 | 0.00 | 0.00 | 0.00 | 27 | 1009.0 |
| 20260504003807 | 17 | 196 | 17.7 | 24.1 | 0.00 | 0.00 | 0.00 | 27 | 1009.0 |
| 20260504003607 | 17 | 194 | 16.1 | 24.1 | 0.00 | 0.00 | 0.00 | 27 | 1009.0 |
| 20260504003406 | 17 | 194 | 19.3 | 25.7 | 0.00 | 0.00 | 0.00 | 27 | 1009.0 |
| 20260504003205 | 17 | 193 | 19.3 | 25.7 | 0.00 | 0.00 | 0.00 | 27 | 1009.0 |
| 20260504003006 | 17 | 193 | 17.7 | 27.4 | 0.00 | 0.00 | 0.00 | 27 | 1009.0 |
| 20260504002606 | 17 | 194 | 19.3 | 27.4 | 0.00 | 0.00 | 0.00 | 27 | 1009.0 |
| 20260504002405 | 17 | 195 | 20.9 | 27.4 | 0.00 | 0.00 | 0.00 | 27 | 1009.0 |
| 20260504002206 | 17 | 196 | 17.7 | 30.6 | 0.00 | 0.00 | 0.00 | 27 | 1009.0 |
| 20260504002006 | 17 | 197 | 20.9 | 30.6 | 0.00 | 0.00 | 0.00 | 27 | 1009.0 |
| 20260504001807 | 17 | 196 | 17.7 | 30.6 | 0.00 | 0.00 | 0.00 | 26 | 1009.0 |
| 20260504001606 | 17 | 197 | 22.5 | 30.6 | 0.00 | 0.00 | 0.00 | 26 | 1009.0 |
| 20260504001406 | 17 | 198 | 22.5 | 30.6 | 0.00 | 0.00 | 0.00 | 26 | 1009.0 |
| 20260504001206 | 17 | 198 | 20.9 | 30.6 | 0.00 | 0.00 | 0.00 | 26 | 1009.0 |
| 20260504001006 | 17 | 198 | 22.5 | 30.6 | 0.00 | 0.00 | 0.00 | 26 | 1009.0 |
| 20260504000806 | 17 | 198 | 19.3 | 27.4 | 0.00 | 0.00 | 0.00 | 26 | 1009.0 |
| 20260504000606 | 17 | 194 | 20.9 | 27.4 | 0.00 | 0.00 | 0.00 | 26 | 1009.0 |
| 20260504000006 | 17 | 181 | 17.7 | 22.5 | 0.00 | 0.00 | 0.00 | 26 | 1009.0 |
| 20260503235805 | 17 | 179 | 17.7 | 22.5 | 0.00 | 0.00 | 0.00 | 26 | 1009.0 |
| 20260503235606 | 17 | 178 | 17.7 | 20.9 | 0.00 | 0.00 | 0.00 | 26 | 1009.0 |
| 20260503235206 | 17 | 176 | 16.1 | 20.9 | 0.00 | 0.00 | 0.00 | 26 | 1009.0 |
| 20260503235006 | 17 | 176 | 17.7 | 20.9 | 0.00 | 0.00 | 0.00 | 26 | 1009.0 |
| 20260503234806 | 17 | 175 | 17.7 | 22.5 | 0.00 | 0.00 | 0.00 | 26 | 1009.0 |
| 20260503234206 | 17 | 172 | 17.7 | 22.5 | 0.00 | 0.00 | 0.00 | 26 | 1009.0 |
| 20260503234007 | 17 | 170 | 19.3 | 22.5 | 0.00 | 0.00 | 0.00 | 26 | 1009.0 |
| 20260503233605 | 16 | 167 | 16.1 | 19.3 | 0.00 | 0.00 | 0.00 | 25 | 1009.0 |
| 20260503233405 | 17 | 167 | 17.7 | 19.3 | 0.00 | 0.00 | 0.00 | 25 | 1009.0 |
| 20260503233206 | 17 | 167 | 16.1 | 19.3 | 0.00 | 0.00 | 0.00 | 25 | 1009.0 |
| 20260503232406 | 17 | 166 | 16.1 | 20.9 | 0.00 | 0.00 | 0.00 | 25 | 1009.0 |
| 20260503232006 | 17 | 167 | 17.7 | 20.9 | 0.00 | 0.00 | 0.00 | 25 | 1009.0 |
| 20260503231806 | 17 | 167 | 16.1 | 20.9 | 0.00 | 0.00 | 0.00 | 25 | 1009.0 |
| 20260503231608 | 17 | 167 | 16.1 | 19.3 | 0.00 | 0.00 | 0.00 | 25 | 1009.0 |
| 20260503231206 | 17 | 166 | 16.1 | 19.3 | 0.00 | 0.00 | 0.00 | 25 | 1009.0 |
| 20260503230806 | 17 | 164 | 17.7 | 19.3 | 0.00 | 0.00 | 0.00 | 25 | 1009.0 |
| 20260503230406 | 17 | 164 | 17.7 | 19.3 | 0.00 | 0.00 | 0.00 | 24 | 1009.0 |
| 20260503230207 | 17 | 165 | 16.1 | 19.3 | 0.00 | 0.00 | 0.00 | 24 | 1009.0 |
| 20260503230006 | 17 | 166 | 16.1 | 19.3 | 0.00 | 0.00 | 0.00 | 24 | 1009.0 |
| 20260503225806 | 17 | 166 | 16.1 | 19.3 | 0.00 | 0.00 | 0.00 | 24 | 1009.0 |
| 20260503225607 | 17 | 167 | 17.7 | 19.3 | 0.00 | 0.00 | 0.00 | 24 | 1009.0 |
| 20260503225205 | 17 | 166 | 17.7 | 19.3 | 0.00 | 0.00 | 0.00 | 24 | 1009.0 |
| 20260503225006 | 17 | 166 | 17.7 | 19.3 | 0.00 | 0.00 | 0.00 | 24 | 1009.0 |
| 20260503224806 | 17 | 167 | 16.1 | 19.3 | 0.00 | 0.00 | 0.00 | 24 | 1009.0 |
| 20260503224606 | 17 | 168 | 16.1 | 19.3 | 0.00 | 0.00 | 0.00 | 24 | 1009.0 |
| 20260503224407 | 17 | 169 | 16.1 | 20.9 | 0.00 | 0.00 | 0.00 | 24 | 1009.0 |
| 20260503224206 | 17 | 170 | 14.5 | 20.9 | 0.00 | 0.00 | 0.00 | 23 | 1009.0 |
| 20260503224006 | 18 | 171 | 16.1 | 22.5 | 0.00 | 0.00 | 0.00 | 23 | 1009.0 |
| 20260503223606 | 18 | 171 | 17.7 | 22.5 | 0.00 | 0.00 | 0.00 | 23 | 1009.0 |
| 20260503223407 | 18 | 172 | 16.1 | 22.5 | 0.00 | 0.00 | 0.00 | 23 | 1009.0 |
| 20260503223206 | 18 | 172 | 14.5 | 22.5 | 0.00 | 0.00 | 0.00 | 23 | 1009.0 |
| 20260503223007 | 18 | 172 | 14.5 | 20.9 | 0.00 | 0.00 | 0.00 | 23 | 1009.0 |
| 20260503222806 | 18 | 173 | 16.1 | 19.3 | 0.00 | 0.00 | 0.00 | 23 | 1009.0 |
| 20260503222606 | 18 | 172 | 16.1 | 20.9 | 0.00 | 0.00 | 0.00 | 23 | 1009.0 |
| 20260503222405 | 18 | 172 | 14.5 | 20.9 | 0.00 | 0.00 | 0.00 | 23 | 1009.0 |
| 20260503222206 | 18 | 172 | 12.9 | 20.9 | 0.00 | 0.00 | 0.00 | 23 | 1009.0 |
| 20260503222006 | 18 | 172 | 16.1 | 20.9 | 0.00 | 0.00 | 0.00 | 23 | 1009.0 |
| 20260503221606 | 18 | 174 | 17.7 | 20.9 | 0.00 | 0.00 | 0.00 | 22 | 1009.0 |
| 20260503221406 | 18 | 174 | 14.5 | 20.9 | 0.00 | 0.00 | 0.00 | 22 | 1009.0 |
| 20260503221207 | 18 | 173 | 17.7 | 20.9 | 0.00 | 0.00 | 0.00 | 22 | 1009.0 |
| 20260503221006 | 18 | 172 | 16.1 | 20.9 | 0.00 | 0.00 | 0.00 | 22 | 1009.0 |
| 20260503220806 | 18 | 173 | 14.5 | 20.9 | 0.00 | 0.00 | 0.00 | 22 | 1009.0 |
| 20260503220606 | 18 | 173 | 16.1 | 20.9 | 0.00 | 0.00 | 0.00 | 22 | 1009.0 |
| 20260503220406 | 18 | 175 | 14.5 | 20.9 | 0.00 | 0.00 | 0.00 | 22 | 1009.0 |
| 20260503220206 | 18 | 176 | 16.1 | 20.9 | 0.00 | 0.00 | 0.00 | 22 | 1009.0 |
| 20260503215807 | 18 | 175 | 17.7 | 19.3 | 0.00 | 0.00 | 0.00 | 22 | 1010.0 |
| 20260503215607 | 18 | 174 | 16.1 | 19.3 | 0.00 | 0.00 | 0.00 | 22 | 1010.0 |
| 20260503215406 | 18 | 172 | 14.5 | 16.1 | 0.00 | 0.00 | 0.00 | 22 | 1010.0 |
| 20260503215206 | 18 | 171 | 14.5 | 16.1 | 0.00 | 0.00 | 0.00 | 22 | 1010.0 |
| 20260503215005 | 18 | 171 | 14.5 | 16.1 | 0.00 | 0.00 | 0.00 | 22 | 1010.0 |
| 20260503214806 | 18 | 170 | 12.9 | 16.1 | 0.00 | 0.00 | 0.00 | 22 | 1010.0 |
| 20260503214606 | 18 | 170 | 14.5 | 17.7 | 0.00 | 0.00 | 0.00 | 22 | 1010.0 |
| 20260503214405 | 18 | 169 | 12.9 | 17.7 | 0.00 | 0.00 | 0.00 | 22 | 1010.0 |
| 20260503214206 | 18 | 169 | 12.9 | 17.7 | 0.00 | 0.00 | 0.00 | 20 | 1010.0 |
| 20260503214006 | 18 | 169 | 14.5 | 17.7 | 0.00 | 0.00 | 0.00 | 20 | 1010.0 |
| 20260503213805 | 18 | 169 | 14.5 | 17.7 | 0.00 | 0.00 | 0.00 | 20 | 1010.0 |
| 20260503213606 | 18 | 169 | 12.9 | 17.7 | 0.00 | 0.00 | 0.00 | 20 | 1010.0 |
| 20260503213406 | 18 | 169 | 14.5 | 17.7 | 0.00 | 0.00 | 0.00 | 20 | 1010.0 |
| 20260503213205 | 18 | 170 | 16.1 | 17.7 | 0.00 | 0.00 | 0.00 | 20 | 1010.0 |
| 20260503213006 | 18 | 170 | 12.9 | 19.3 | 0.00 | 0.00 | 0.00 | 20 | 1010.0 |
| 20260503212806 | 18 | 169 | 14.5 | 19.3 | 0.00 | 0.00 | 0.00 | 20 | 1010.0 |
| 20260503212407 | 18 | 170 | 14.5 | 20.9 | 0.00 | 0.00 | 0.00 | 20 | 1010.0 |
| 20260503212207 | 18 | 170 | 11.3 | 20.9 | 0.00 | 0.00 | 0.00 | 20 | 1010.0 |
| 20260503212006 | 18 | 171 | 14.5 | 20.9 | 0.00 | 0.00 | 0.00 | 17 | 1010.0 |
| 20260503211806 | 19 | 173 | 14.5 | 20.9 | 0.00 | 0.00 | 0.00 | 17 | 1010.0 |
| 20260503211606 | 19 | 175 | 14.5 | 20.9 | 0.00 | 0.00 | 0.00 | 17 | 1010.0 |
| 20260503211406 | 19 | 175 | 14.5 | 20.9 | 0.00 | 0.00 | 0.00 | 17 | 1010.0 |
| 20260503211205 | 19 | 174 | 16.1 | 20.9 | 0.00 | 0.00 | 0.00 | 17 | 1010.0 |
| 20260503211006 | 19 | 174 | 14.5 | 19.3 | 0.00 | 0.00 | 0.00 | 17 | 1010.0 |
| 20260503210606 | 19 | 175 | 14.5 | 19.3 | 0.00 | 0.00 | 0.00 | 17 | 1010.0 |
| 20260503210407 | 19 | 176 | 16.1 | 20.9 | 0.00 | 0.00 | 0.00 | 14 | 1010.0 |
| 20260503210206 | 20 | 176 | 14.5 | 20.9 | 0.00 | 0.00 | 0.00 | 14 | 1010.0 |
| 20260503210006 | 20 | 177 | 16.1 | 20.9 | 0.00 | 0.00 | 0.00 | 14 | 1010.0 |
| 20260503205805 | 19 | 174 | 12.9 | 20.9 | 0.00 | 0.00 | 0.00 | 14 | 1010.0 |
| 20260503205406 | 20 | 175 | 17.7 | 27.4 | 0.00 | 0.00 | 0.00 | 14 | 1010.0 |
| 20260503205206 | 20 | 176 | 17.7 | 27.4 | 0.00 | 0.00 | 0.00 | 14 | 1010.0 |
| 20260503205007 | 20 | 177 | 16.1 | 27.4 | 0.00 | 0.00 | 0.00 | 14 | 1010.0 |
| 20260503204806 | 20 | 178 | 12.9 | 27.4 | 0.00 | 0.00 | 0.00 | 14 | 1010.0 |
| 20260503204606 | 20 | 178 | 20.9 | 27.4 | 0.00 | 0.00 | 0.00 | 14 | 1010.0 |
| 20260503204406 | 20 | 178 | 19.3 | 24.1 | 0.00 | 0.00 | 0.00 | 14 | 1010.0 |
| 20260503204205 | 20 | 176 | 17.7 | 24.1 | 0.00 | 0.00 | 0.00 | 14 | 1010.0 |
| 20260503204006 | 20 | 174 | 16.1 | 24.1 | 0.00 | 0.00 | 0.00 | 14 | 1010.0 |
| 20260503203806 | 20 | 174 | 14.5 | 20.9 | 0.00 | 0.00 | 0.00 | 14 | 1010.0 |
| 20260503203606 | 20 | 174 | 17.7 | 20.9 | 0.00 | 0.00 | 0.00 | 14 | 1010.0 |
| 20260503203406 | 20 | 174 | 17.7 | 20.9 | 0.00 | 0.00 | 0.00 | 14 | 1010.0 |
| 20260503203206 | 20 | 176 | 12.9 | 20.9 | 0.00 | 0.00 | 0.00 | 12 | 1010.0 |
| 20260503203006 | 20 | 178 | 14.5 | 20.9 | 0.00 | 0.00 | 0.00 | 12 | 1010.0 |
| 20260503202806 | 20 | 179 | 14.5 | 20.9 | 0.00 | 0.00 | 0.00 | 12 | 1010.0 |
| 20260503202606 | 20 | 181 | 14.5 | 20.9 | 0.00 | 0.00 | 0.00 | 12 | 1010.0 |
| 20260503202407 | 20 | 182 | 16.1 | 22.5 | 0.00 | 0.00 | 0.00 | 11 | 1010.0 |
| 20260503202206 | 20 | 184 | 14.5 | 22.5 | 0.00 | 0.00 | 0.00 | 11 | 1010.0 |
| 20260503202005 | 20 | 182 | 16.1 | 22.5 | 0.00 | 0.00 | 0.00 | 11 | 1010.0 |
| 20260503201806 | 21 | 179 | 14.5 | 22.5 | 0.00 | 0.00 | 0.00 | 11 | 1010.0 |
| 20260503201406 | 21 | 177 | 17.7 | 20.9 | 0.00 | 0.00 | 0.00 | 11 | 1010.0 |
| 20260503201206 | 21 | 176 | 12.9 | 20.9 | 0.00 | 0.00 | 0.00 | 11 | 1010.0 |
| 20260503201006 | 21 | 176 | 17.7 | 20.9 | 0.00 | 0.00 | 0.00 | 11 | 1010.0 |
| 20260503200805 | 21 | 176 | 16.1 | 19.3 | 0.00 | 0.00 | 0.00 | 11 | 1010.0 |
| 20260503200606 | 20 | 177 | 16.1 | 17.7 | 0.00 | 0.00 | 0.00 | 11 | 1010.0 |
| 20260503200406 | 21 | 176 | 14.5 | 17.7 | 0.00 | 0.00 | 0.00 | 11 | 1010.0 |
| 20260503200205 | 21 | 176 | 14.5 | 17.7 | 0.00 | 0.00 | 0.00 | 11 | 1010.0 |
| 20260503200006 | 21 | 177 | 14.5 | 17.7 | 0.00 | 0.00 | 0.00 | 11 | 1010.0 |
| 20260503195806 | 21 | 179 | 12.9 | 17.7 | 0.00 | 0.00 | 0.00 | 11 | 1010.0 |
| 20260503195606 | 21 | 181 | 12.9 | 17.7 | 0.00 | 0.00 | 0.00 | 11 | 1010.0 |
| 20260503195407 | 21 | 182 | 14.5 | 17.7 | 0.00 | 0.00 | 0.00 | 11 | 1010.0 |
| 20260503195206 | 21 | 183 | 16.1 | 17.7 | 0.00 | 0.00 | 0.00 | 11 | 1010.0 |
| 20260503195006 | 21 | 184 | 14.5 | 17.7 | 0.00 | 0.00 | 0.00 | 11 | 1010.0 |
| 20260503194807 | 21 | 184 | 12.9 | 17.7 | 0.00 | 0.00 | 0.00 | 11 | 1010.0 |
| 20260503194406 | 21 | 185 | 12.9 | 19.3 | 0.00 | 0.00 | 0.00 | 11 | 1010.0 |
| 20260503194006 | 21 | 184 | 14.5 | 19.3 | 0.00 | 0.00 | 0.00 | 11 | 1010.0 |
| 20260503193805 | 21 | 183 | 14.5 | 19.3 | 0.00 | 0.00 | 0.00 | 11 | 1010.0 |
| 20260503193606 | 21 | 183 | 16.1 | 19.3 | 0.00 | 0.00 | 0.00 | 11 | 1010.0 |
| 20260503193407 | 21 | 182 | 14.5 | 17.7 | 0.00 | 0.00 | 0.00 | 11 | 1010.0 |
| 20260503193206 | 21 | 182 | 16.1 | 19.3 | 0.00 | 0.00 | 0.00 | 11 | 1010.0 |
| 20260503193006 | 21 | 178 | 14.5 | 19.3 | 0.00 | 0.00 | 0.00 | 11 | 1010.0 |
| 20260503192607 | 21 | 177 | 16.1 | 19.3 | 0.00 | 0.00 | 0.00 | 11 | 1010.0 |
| 20260503192407 | 21 | 177 | 17.7 | 19.3 | 0.00 | 0.00 | 0.00 | 11 | 1010.0 |
| 20260503192006 | 21 | 181 | 14.5 | 19.3 | 0.00 | 0.00 | 0.00 | 11 | 1010.0 |
| 20260503191806 | 21 | 179 | 17.7 | 19.3 | 0.00 | 0.00 | 0.00 | 11 | 1010.0 |
| 20260503191606 | 21 | 178 | 12.9 | 19.3 | 0.00 | 0.00 | 0.00 | 11 | 1010.0 |
| 20260503191407 | 21 | 181 | 16.1 | 19.3 | 0.00 | 0.00 | 0.00 | 11 | 1010.0 |
| 20260503191006 | 21 | 182 | 16.1 | 20.9 | 0.00 | 0.00 | 0.00 | 11 | 1010.0 |
| 20260503190806 | 21 | 183 | 14.5 | 20.9 | 0.00 | 0.00 | 0.00 | 11 | 1010.0 |
| 20260503190606 | 21 | 186 | 12.9 | 20.9 | 0.00 | 0.00 | 0.00 | 11 | 1010.0 |
| 20260503190406 | 21 | 186 | 16.1 | 20.9 | 0.00 | 0.00 | 0.00 | 11 | 1010.0 |
| 20260503190206 | 21 | 186 | 12.9 | 20.9 | 0.00 | 0.00 | 0.00 | 11 | 1010.0 |
| 20260503190005 | 21 | 184 | 17.7 | 20.9 | 0.00 | 0.00 | 0.00 | 11 | 1010.0 |
| 20260503185806 | 21 | 183 | 17.7 | 20.9 | 0.00 | 0.00 | 0.00 | 11 | 1010.0 |
| 20260503185606 | 21 | 182 | 16.1 | 20.9 | 0.00 | 0.00 | 0.00 | 11 | 1010.0 |
| 20260503185407 | 21 | 179 | 16.1 | 20.9 | 0.00 | 0.00 | 0.00 | 11 | 1010.0 |
| 20260503185207 | 21 | 177 | 12.9 | 19.3 | 0.00 | 0.00 | 0.00 | 11 | 1010.0 |
| 20260503185006 | 21 | 177 | 14.5 | 19.3 | 0.00 | 0.00 | 0.00 | 11 | 1010.0 |
| 20260503184606 | 21 | 176 | 12.9 | 17.7 | 0.00 | 0.00 | 0.00 | 11 | 1010.0 |
| 20260503184406 | 21 | 176 | 16.1 | 17.7 | 0.00 | 0.00 | 0.00 | 11 | 1010.0 |
| 20260503184206 | 21 | 178 | 12.9 | 17.7 | 0.00 | 0.00 | 0.00 | 11 | 1010.0 |
| 20260503184006 | 21 | 179 | 11.3 | 17.7 | 0.00 | 0.00 | 0.00 | 11 | 1010.0 |
| 20260503183406 | 22 | 187 | 14.5 | 19.3 | 0.00 | 0.00 | 0.00 | 11 | 1010.0 |
| 20260503183207 | 22 | 187 | 11.3 | 19.3 | 0.00 | 0.00 | 0.00 | 11 | 1010.0 |
| 20260503183006 | 22 | 188 | 14.5 | 19.3 | 0.00 | 0.00 | 0.00 | 10 | 1010.0 |
| 20260503182805 | 22 | 186 | 16.1 | 19.3 | 0.00 | 0.00 | 0.00 | 10 | 1009.0 |
| 20260503182607 | 22 | 185 | 11.3 | 19.3 | 0.00 | 0.00 | 0.00 | 10 | 1009.0 |
| 20260503182406 | 22 | 186 | 16.1 | 19.3 | 0.00 | 0.00 | 0.00 | 10 | 1009.0 |
| 20260503182206 | 22 | 187 | 16.1 | 19.3 | 0.00 | 0.00 | 0.00 | 10 | 1009.0 |
| 20260503182007 | 22 | 186 | 16.1 | 19.3 | 0.00 | 0.00 | 0.00 | 10 | 1009.0 |
| 20260503181806 | 22 | 186 | 14.5 | 20.9 | 0.00 | 0.00 | 0.00 | 10 | 1009.0 |
| 20260503181608 | 22 | 187 | 12.9 | 20.9 | 0.00 | 0.00 | 0.00 | 10 | 1009.0 |
| 20260503181406 | 22 | 185 | 14.5 | 20.9 | 0.00 | 0.00 | 0.00 | 10 | 1009.0 |
| 20260503181206 | 22 | 183 | 14.5 | 20.9 | 0.00 | 0.00 | 0.00 | 10 | 1009.0 |
| 20260503181006 | 22 | 184 | 16.1 | 20.9 | 0.00 | 0.00 | 0.00 | 10 | 1009.0 |
| 20260503180806 | 22 | 185 | 14.5 | 17.7 | 0.00 | 0.00 | 0.00 | 10 | 1009.0 |
| 20260503180606 | 22 | 184 | 11.3 | 17.7 | 0.00 | 0.00 | 0.00 | 10 | 1009.0 |
| 20260503180406 | 22 | 187 | 12.9 | 17.7 | 0.00 | 0.00 | 0.00 | 10 | 1009.0 |
| 20260503180205 | 22 | 188 | 14.5 | 17.7 | 0.00 | 0.00 | 0.00 | 10 | 1009.0 |
| 20260503180006 | 22 | 185 | 12.9 | 17.7 | 0.00 | 0.00 | 0.00 | 10 | 1009.0 |
| 20260503175806 | 22 | 185 | 11.3 | 17.7 | 0.00 | 0.00 | 0.00 | 10 | 1009.0 |
| 20260503175406 | 23 | 179 | 12.9 | 16.1 | 0.00 | 0.00 | 0.00 | 10 | 1009.0 |
| 20260503175206 | 23 | 176 | 11.3 | 14.5 | 0.00 | 0.00 | 0.00 | 10 | 1009.0 |
| 20260503175006 | 23 | 178 | 11.3 | 17.7 | 0.00 | 0.00 | 0.00 | 10 | 1009.0 |
| 20260503174805 | 23 | 176 | 12.9 | 17.7 | 0.00 | 0.00 | 0.00 | 10 | 1009.0 |
| 20260503174606 | 23 | 176 | 11.3 | 17.7 | 0.00 | 0.00 | 0.00 | 10 | 1009.0 |
| 20260503174406 | 23 | 176 | 11.3 | 17.7 | 0.00 | 0.00 | 0.00 | 10 | 1009.0 |
| 20260503174006 | 23 | 179 | 11.3 | 17.7 | 0.00 | 0.00 | 0.00 | 10 | 1009.0 |
| 20260503173806 | 23 | 185 | 14.5 | 17.7 | 0.00 | 0.00 | 0.00 | 10 | 1009.0 |
| 20260503173607 | 23 | 186 | 12.9 | 16.1 | 0.00 | 0.00 | 0.00 | 10 | 1009.0 |
| 20260503173406 | 23 | 186 | 12.9 | 19.3 | 0.00 | 0.00 | 0.00 | 10 | 1009.0 |
| 20260503172806 | 24 | 177 | 9.7 | 19.3 | 0.00 | 0.00 | 0.00 | 10 | 1009.0 |
| 20260503172606 | 24 | 175 | 14.5 | 19.3 | 0.00 | 0.00 | 0.00 | 10 | 1009.0 |
| 20260503172406 | 24 | 175 | 12.9 | 17.7 | 0.00 | 0.00 | 0.00 | 10 | 1009.0 |
| 20260503172207 | 24 | 175 | 11.3 | 19.3 | 0.00 | 0.00 | 0.00 | 10 | 1009.0 |
| 20260503172008 | 25 | 178 | 11.3 | 19.3 | 0.00 | 0.00 | 0.00 | 10 | 1009.0 |
| 20260503171806 | 24 | 179 | 11.3 | 20.9 | 0.00 | 0.00 | 0.00 | 10 | 1009.0 |
| 20260503171607 | 25 | 182 | 11.3 | 20.9 | 0.00 | 0.00 | 0.00 | 10 | 1009.0 |
| 20260503171206 | 25 | 181 | 9.7 | 20.9 | 0.00 | 0.00 | 0.00 | 10 | 1009.0 |
| 20260503171006 | 25 | 179 | 16.1 | 20.9 | 0.00 | 0.00 | 0.00 | 10 | 1009.0 |
| 20260503170806 | 25 | 179 | 14.5 | 20.9 | 0.00 | 0.00 | 0.00 | 10 | 1009.0 |
| 20260503170605 | 25 | 179 | 12.9 | 20.9 | 0.00 | 0.00 | 0.00 | 10 | 1009.0 |
| 20260503170406 | 25 | 178 | 12.9 | 20.9 | 0.00 | 0.00 | 0.00 | 10 | 1009.0 |
| 20260503170206 | 25 | 179 | 14.5 | 20.9 | 0.00 | 0.00 | 0.00 | 10 | 1009.0 |